Flag for Norway Weather past 2 weeks in Kvernaland, Norway

Now
40 °F

Clear.


Feels Like: 40 °F
Forecast: 45 / 63 °F
Wind: 1 mph from East

Location: Stavanger / Sola


UV Index: 3 (Moderate)

Visibility: 17 mi


Pressure: 30.24 "Hg

Humidity: 93%

Dew point: 38 °F

Location of KvernalandLocation

Historic Weather in Kvernaland

°F

Kvernaland temperature yesterday

Maximum temperature yesterday: 55 °F (at 1:00 PM)
Minimum temperature yesterday: 35 °F (at 5:00 AM)
Average temperature yesterday: 45 °F

Past Weeks' High & Low Weather Summary

 TemperatureHumidityPressure
High56 °F (Apr 7, 3:00 PM)97% (Apr 11, 4:00 AM)30.37 "Hg (Apr 11, 4:00 AM)
Low35 °F (Apr 19, 5:00 AM)17% (Apr 5, 5:00 AM)29.41 "Hg (Apr 8, 5:00 AM)
Average46 °F72%29.90 "Hg
* Reported Apr 5 1:00 AM — Apr 20 1:00 AM, Kvernaland, Weather by CustomWeather, © 2014

Note: Actual official high and low records may vary slightly from our data, if they occured in-between our weather recording intervals... More about our weather records

Advertising

Historic Weather Conditions — Data for Previous 24 hours

 ConditionsComfort  
Time TempWeatherWind HumidityBarometerVisibility
1:00 AM
Apr 20
40 °FClear.1 mph93%30.24 "Hg17 mi
12:00 AM42 °FClear.No wind92%30.25 "Hg19 mi
11:00 PM
Apr 19
43 °FClear.No wind90%30.26 "Hg31 mi
10:00 PM44 °FClear.2 mph84%30.27 "Hg31 mi
9:00 PM46 °FClear.2 mph79%30.27 "Hg31 mi
8:00 PM49 °FSunny.2 mph73%30.27 "Hg28 mi
7:00 PM51 °FSunny.3 mph68%30.27 "Hg25 mi
6:00 PM50 °FSunny.3 mph67%30.29 "Hg28 mi
5:00 PM51 °FSunny.3 mph69%30.29 "Hg22 mi
4:00 PM50 °FSunny.5 mph67%30.30 "Hg19 mi
3:00 PM52 °FSunny.5 mph61%30.30 "Hg19 mi
2:00 PM54 °FSunny.6 mph56%30.30 "Hg25 mi
1:00 PM55 °FSunny.5 mph55%30.30 "Hg28 mi
12:00 PM54 °FSunny.2 mph58%30.30 "Hg22 mi
11:00 AM54 °FSunny.3 mph55%30.30 "Hg25 mi
10:00 AM52 °FSunny.5 mph55%30.29 "Hg28 mi
9:00 AM48 °FSunny.2 mph66%30.29 "Hg22 mi
8:00 AM40 °FSunny.1 mph83%30.27 "Hg19 mi
7:00 AM37 °FSunny.No wind94%30.27 "Hg13 mi
6:00 AM35 °FClear.1 mph92%30.26 "Hg19 mi
5:00 AM35 °FClear.No wind91%30.25 "Hg17 mi
4:00 AM38 °FClear.No wind89%30.24 "Hg18 mi
3:00 AM36 °FClear.No wind92%30.24 "Hg16 mi
2:00 AM37 °FClear.No wind91%30.24 "Hg14 mi
Weather by CustomWeather, © 2014

See weather overview